This demonstration page uses our WeatherBlox Daily Observations layout. Learn more.

36.17497, -115.13722

Hourly Observations for July 4, 2018

Temp ( °F °C ) Dew Point ( °F °C ) Humidity (%) Winds ( mph kmh ) Pressure ( in mb ) Visibility ( mi km ) Precip ( " mm )
12:53 am 00:53 Clear 88 31.1 13 -10.6 6 6 S 7 11 29.77 1008 10 16.09344 0 0
1:53 am 01:53 Clear 84 28.9 19 -7.2 9 9 SSE 7 11 29.8 1009 10 16.09344 0 0
2:53 am 02:53 Clear 82 27.8 20 -6.7 10 10 ESE 6 9 29.8 1009 10 16.09344 0 0
3:53 am 03:53 Clear 80 26.7 19 -7.2 10 10 NE 3 6 29.83 1010 10 16.09344 0 0
4:53 am 04:53 Clear 78 25.6 23 -5 13 13 Calm 29.85 1011 10 16.09344 0 0
5:53 am 05:53 Sunny 78 25.6 27 -2.8 15 15 E 7 11 29.88 1012 10 16.09344 0 0
6:53 am 06:53 Sunny 82 27.8 33 0.6 17 17 E 8 13 29.88 1012 10 16.09344 0 0
7:53 am 07:53 Sunny 85 29.4 33 0.6 15 15 E 7 11 29.91 1013 10 16.09344 0 0
8:53 am 08:53 Sunny 88 31.1 36 2.2 16 16 SSE 9 15 29.91 1013 10 16.09344 0 0
9:53 am 09:53 Sunny 91 32.8 35 1.7 14 14 SE 12 19 29.91 1013 10 16.09344 0 0
10:53 am 10:53 Sunny 94 34.4 33 0.6 12 12 ESE 14 22 29.91 1013 10 16.09344 0 0
11:53 am 11:53 Sunny 96 35.6 30 -1.1 10 10 SSE 10 17 29.91 1013 10 16.09344 0 0
12:53 pm 12:53 Sunny 97 36.1 33 0.6 10 10 S 9 15 29.88 1012 10 16.09344 0 0
1:53 pm 13:53 Sunny 100 37.8 32 0 9 9 SW 9 15 29.88 1012 10 16.09344 0 0
2:53 pm 14:53 Sunny 102 38.9 25 -3.9 6 6 S 9 15 29.85 1011 10 16.09344 0 0
3:53 pm 15:53 Sunny 103 39.4 23 -5 6 6 SW 16 26 29.85 1011 10 16.09344 0 0
4:13 pm 16:13 Sunny 104 40 25 -3.9 6 6 S 17 28 29.71 1006 10 16.09344 0 0
4:53 pm 16:53 Sunny 103 39.4 22 -5.6 5 5 SSW 13 20 29.83 1010 10 16.09344 0 0
5:53 pm 17:53 Sunny 102 38.9 26 -3.3 7 7 S 12 19 29.83 1010 10 16.09344 0 0
6:53 pm 18:53 Sunny 100 37.8 30 -1.1 8 8 S 17 28 29.83 1010 10 16.09344 0 0
7:53 pm 19:53 Sunny 98 36.7 31 -0.6 9 9 S 16 26 29.85 1011 10 16.09344 0 0
8:53 pm 20:53 Clear 97 36.1 33 0.6 10 10 S 18 30 29.85 1011 10 16.09344 0 0
9:53 pm 21:53 Clear 95 35 34 1.1 12 12 SSW 10 17 29.88 1012 10 16.09344 0 0
10:53 pm 22:53 Clear 93 33.9 34 1.1 12 12 SSW 10 17 29.91 1013 10 16.09344 0 0
11:53 pm 23:53 Clear 91 32.8 33 0.6 13 13 SSW 6 9 29.91 1013 10 16.09344 0 0

Powered by AerisWeather